Weather History for Ohio State University, OH

Change the Weather History Date:

Friday, May 24, 2013

  Actual Average Record
Temperature  
Mean Temperature 50 °F -  
Max Temperature 59 °F 71 °F 86 °F (2007)
Min Temperature 43 °F 50 °F 39 °F (2003)
Degree Days  
Heating Degree Days 15    
Moisture  
Dew Point 38 °F    
Average Humidity 66    
Maximum Humidity 86    
Minimum Humidity 44    
Precipitation  
Precipitation 0.00 in - - ()
Sea Level Pressure  
Sea Level Pressure 30.24 in    
Wind  
Wind Speed 12 mph (North)    
Max Wind Speed 16 mph    
Max Gust Speed 23 mph    
Visibility 10 miles    
Events      
Averages and records for this station are not official NWS values.
T = Trace of Precipitation, MM = Missing Value Source: NWS Daily Summary

Daily Weather History Graph

Daily Weather History Graph

Search for Another Location

Airport:

Trip Planner

Search our weather history database for the weather conditions in past years. The results will help you decide how hot, cold, wet, or windy it might be!

Date:

Astronomy

May. 24, 2013 Rise Set
Actual Time 6:09 AM EDT 8:49 PM EDT
Civil Twilight 5:37 AM EDT 9:20 PM EDT
Nautical Twilight 4:58 AM EDT 10:00 PM EDT
Astronomical Twilight 4:14 AM EDT 10:45 PM EDT
Moon 8:30 PM EDT (5/24) 5:40 AM EDT (5/24)
Length of Visible Light 15h 42m
Length of Day
14h 39m
Full, 100% of the Moon is Illuminated
May 24
Full
May 25
Full
May 31
Last Quarter
Jun 8
New
Jun 16
First Quarter

Hourly Weather History & Observations

Time (EDT) Temp. Windchill Dew Point Humidity Pressure Visibility Wind Dir Wind Speed Gust Speed Precip Events Conditions
12:53 AM 46.9 °F - 43.0 °F 86% 30.09 in 10.0 mi North 12.7 mph 23.0 mph N/A   Overcast
1:53 AM 46.0 °F 39.6 °F 41.0 °F 83% 30.11 in 10.0 mi North 15.0 mph 23.0 mph N/A   Overcast
2:22 AM 46.4 °F 41.9 °F 39.2 °F 76% 30.12 in 10.0 mi North 9.2 mph 21.9 mph N/A   Overcast
2:53 AM 45.0 °F 39.3 °F 39.9 °F 82% 30.12 in 10.0 mi North 11.5 mph - N/A   Overcast
3:03 AM 44.6 °F 39.2 °F 39.2 °F 81% 30.13 in 10.0 mi North 10.4 mph 19.6 mph N/A   Overcast
3:53 AM 45.0 °F 39.3 °F 39.0 °F 80% 30.14 in 10.0 mi NNW 11.5 mph - N/A   Scattered Clouds
4:53 AM 43.0 °F 38.2 °F 37.9 °F 82% 30.16 in 10.0 mi NW 8.1 mph - N/A   Clear
5:53 AM 43.0 °F 36.4 °F 37.0 °F 80% 30.19 in 10.0 mi NNW 12.7 mph - N/A   Clear
6:53 AM 43.0 °F 36.8 °F 37.9 °F 82% 30.21 in 10.0 mi NW 11.5 mph - N/A   Scattered Clouds
7:53 AM 45.0 °F 39.3 °F 37.0 °F 74% 30.23 in 10.0 mi NNW 11.5 mph 17.3 mph N/A   Partly Cloudy
8:53 AM 46.0 °F 40.2 °F 37.0 °F 71% 30.25 in 10.0 mi North 12.7 mph 20.7 mph N/A   Mostly Cloudy
9:30 AM 48.2 °F - 37.4 °F 66% 30.26 in 10.0 mi North 10.4 mph 20.7 mph N/A   Overcast
9:53 AM 48.9 °F - 36.0 °F 61% 30.27 in 10.0 mi North 12.7 mph 19.6 mph N/A   Overcast
10:53 AM 50.0 °F - 37.0 °F 61% 30.30 in 10.0 mi NNW 13.8 mph 23.0 mph N/A   Mostly Cloudy
11:53 AM 53.1 °F - 36.0 °F 52% 30.30 in 10.0 mi NNW 15.0 mph 20.7 mph N/A   Mostly Cloudy
12:53 PM 53.1 °F - 35.1 °F 50% 30.30 in 10.0 mi North 15.0 mph 23.0 mph N/A   Mostly Cloudy
1:53 PM 55.0 °F - 39.0 °F 55% 30.30 in 10.0 mi North 12.7 mph 18.4 mph N/A   Mostly Cloudy
2:53 PM 55.9 °F - 37.0 °F 49% 30.31 in 10.0 mi North 13.8 mph 19.6 mph N/A   Scattered Clouds
3:53 PM 57.0 °F - 37.0 °F 47% 30.31 in 10.0 mi NNW 13.8 mph 19.6 mph N/A   Scattered Clouds
4:53 PM 57.9 °F - 37.0 °F 46% 30.30 in 10.0 mi NNW 11.5 mph 18.4 mph N/A   Partly Cloudy
5:53 PM 57.9 °F - 37.0 °F 46% 30.30 in 10.0 mi North 16.1 mph 19.6 mph N/A   Clear
6:53 PM 57.9 °F - 36.0 °F 44% 30.29 in 10.0 mi NNW 9.2 mph - N/A   Clear
7:53 PM 55.9 °F - 35.1 °F 45% 30.28 in 10.0 mi North 8.1 mph - N/A   Clear
8:53 PM 51.1 °F - 37.9 °F 61% 30.28 in 10.0 mi NE 4.6 mph - N/A   Clear
9:53 PM 48.0 °F - 39.0 °F 71% 30.29 in 10.0 mi NE 5.8 mph - N/A   Clear
10:53 PM 45.0 °F 43.5 °F 37.9 °F 76% 30.32 in 10.0 mi NE 3.5 mph - N/A   Clear
11:53 PM 45.0 °F 42.6 °F 37.9 °F 76% 30.34 in 10.0 mi NNE 4.6 mph - N/A   Clear